Time,TemperatureF,DewpointF,PressureIn,WindDirection,WindDirectionDegrees,WindSpeedMPH,WindSpeedGustMPH,Humidity,HourlyPrecipIn,Conditions,Clouds,dailyrainin,SoftwareType,DateUTC
2013-03-17 00:00:00,37.8,35.4,29.66,North,0,0.0,0.0,91,0.00,,,0.00,WUHU216HW,2013-03-17 07:00:00,
2013-03-17 00:05:00,37.8,35.4,29.66,North,0,0.0,0.0,91,0.00,,,0.00,WUHU216HW,2013-03-17 07:05:00,
2013-03-17 00:10:00,37.8,35.4,29.66,North,0,0.0,0.0,91,0.00,,,0.00,WUHU216HW,2013-03-17 07:10:00,
2013-03-17 00:15:00,37.8,35.4,29.66,North,0,0.0,0.0,91,0.00,,,0.00,WUHU216HW,2013-03-17 07:15:00,
2013-03-17 00:20:00,37.8,35.4,29.67,North,0,0.0,0.0,91,0.00,,,0.00,WUHU216HW,2013-03-17 07:20:00,
2013-03-17 00:25:00,37.8,35.4,29.67,North,0,0.0,0.0,91,0.00,,,0.00,WUHU216HW,2013-03-17 07:25:00,
2013-03-17 00:30:00,38.0,35.6,29.67,North,0,0.0,0.0,91,0.00,,,0.00,WUHU216HW,2013-03-17 07:30:00,
2013-03-17 00:35:00,38.0,35.6,29.67,North,0,0.0,0.0,91,0.00,,,0.00,WUHU216HW,2013-03-17 07:35:00,
2013-03-17 00:40:00,38.0,35.8,29.67,North,0,0.0,0.0,92,0.00,,,0.00,WUHU216HW,2013-03-17 07:40:00,
2013-03-17 00:45:00,38.0,35.8,29.67,North,0,0.0,0.0,92,0.00,,,0.00,WUHU216HW,2013-03-17 07:45:00,
2013-03-17 00:50:00,38.0,35.6,29.67,North,0,0.0,0.0,91,0.00,,,0.00,WUHU216HW,2013-03-17 07:50:00,
2013-03-17 00:55:00,38.2,36.0,29.67,North,0,0.0,0.0,92,0.00,,,0.00,WUHU216HW,2013-03-17 07:55:00,
2013-03-17 01:00:00,38.2,36.0,29.68,North,0,0.0,0.0,92,0.00,,,0.00,WUHU216HW,2013-03-17 08:00:00,
2013-03-17 01:05:00,38.2,36.0,29.68,North,0,0.0,0.0,92,0.00,,,0.00,WUHU216HW,2013-03-17 08:05:00,
2013-03-17 01:10:00,38.3,36.2,29.68,North,0,0.0,0.0,92,0.00,,,0.00,WUHU216HW,2013-03-17 08:10:00,
2013-03-17 01:15:00,38.3,36.2,29.68,North,0,0.0,0.0,92,0.00,,,0.00,WUHU216HW,2013-03-17 08:15:00,
2013-03-17 01:20:00,38.3,36.2,29.68,North,0,0.0,0.0,92,0.00,,,0.00,WUHU216HW,2013-03-17 08:20:00,
2013-03-17 01:25:00,38.3,36.2,29.68,North,0,0.0,0.0,92,0.00,,,0.00,WUHU216HW,2013-03-17 08:25:00,
2013-03-17 01:30:00,38.3,36.2,29.68,North,0,0.0,0.0,92,0.00,,,0.00,WUHU216HW,2013-03-17 08:30:00,
2013-03-17 01:35:00,38.5,36.4,29.68,North,0,0.0,0.0,92,0.00,,,0.00,WUHU216HW,2013-03-17 08:35:00,
2013-03-17 01:40:00,38.5,36.4,29.69,North,0,0.0,0.0,92,0.00,,,0.00,WUHU216HW,2013-03-17 08:40:00,
2013-03-17 01:45:00,38.5,36.4,29.69,North,0,0.0,0.0,92,0.00,,,0.00,WUHU216HW,2013-03-17 08:45:00,
2013-03-17 01:50:00,38.5,36.4,29.69,North,0,0.0,0.0,92,0.00,,,0.00,WUHU216HW,2013-03-17 08:50:00,
2013-03-17 01:55:00,38.5,36.4,29.69,North,0,0.0,0.0,92,0.00,,,0.00,WUHU216HW,2013-03-17 08:55:00,
2013-03-17 02:00:00,38.5,36.4,29.69,North,0,0.0,0.0,92,0.00,,,0.00,WUHU216HW,2013-03-17 09:00:00,
2013-03-17 02:05:00,38.5,36.4,29.70,North,0,0.0,0.0,92,0.00,,,0.00,WUHU216HW,2013-03-17 09:05:00,
2013-03-17 02:10:00,38.5,36.4,29.70,North,0,0.0,0.0,92,0.00,,,0.00,WUHU216HW,2013-03-17 09:10:00,
2013-03-17 02:15:00,38.7,36.5,29.70,North,0,0.0,0.0,92,0.00,,,0.00,WUHU216HW,2013-03-17 09:15:00,
2013-03-17 02:20:00,38.5,36.4,29.70,North,0,0.0,0.0,92,0.00,,,0.00,WUHU216HW,2013-03-17 09:20:00,
2013-03-17 02:25:00,38.5,36.4,29.70,North,0,0.0,0.0,92,0.00,,,0.00,WUHU216HW,2013-03-17 09:25:00,
2013-03-17 02:30:00,38.7,36.5,29.71,North,0,0.0,0.0,92,0.00,,,0.00,WUHU216HW,2013-03-17 09:30:00,
2013-03-17 02:35:00,38.9,36.7,29.71,North,0,0.0,0.0,92,0.00,,,0.00,WUHU216HW,2013-03-17 09:35:00,
2013-03-17 02:40:00,38.9,36.7,29.71,North,0,0.0,0.0,92,0.00,,,0.00,WUHU216HW,2013-03-17 09:40:00,
2013-03-17 02:45:00,38.9,36.7,29.71,North,0,0.0,0.0,92,0.00,,,0.00,WUHU216HW,2013-03-17 09:45:00,
2013-03-17 02:50:00,38.9,36.7,29.71,North,0,0.0,0.0,92,0.00,,,0.00,WUHU216HW,2013-03-17 09:50:00,
2013-03-17 02:55:00,38.9,37.0,29.71,North,0,0.0,0.0,93,0.00,,,0.00,WUHU216HW,2013-03-17 09:55:00,
2013-03-17 03:00:00,38.9,37.0,29.71,North,0,0.0,0.0,93,0.00,,,0.00,WUHU216HW,2013-03-17 10:00:00,
2013-03-17 03:05:00,39.1,37.2,29.71,North,0,0.0,0.0,93,0.00,,,0.00,WUHU216HW,2013-03-17 10:05:00,
2013-03-17 03:10:00,39.1,37.2,29.72,North,0,0.0,0.0,93,0.00,,,0.00,WUHU216HW,2013-03-17 10:10:00,
2013-03-17 03:15:00,39.1,37.2,29.72,North,0,0.0,0.0,93,0.00,,,0.00,WUHU216HW,2013-03-17 10:15:00,
2013-03-17 03:20:00,39.1,37.2,29.72,North,0,0.0,0.0,93,0.00,,,0.00,WUHU216HW,2013-03-17 10:20:00,
2013-03-17 03:25:00,39.1,37.2,29.72,North,0,0.0,0.0,93,0.00,,,0.00,WUHU216HW,2013-03-17 10:25:00,
2013-03-17 03:30:00,39.2,37.4,29.72,North,0,0.0,0.0,93,0.00,,,0.00,WUHU216HW,2013-03-17 10:30:00,
2013-03-17 03:35:00,39.2,37.4,29.72,North,0,0.0,0.0,93,0.00,,,0.00,WUHU216HW,2013-03-17 10:35:00,
2013-03-17 03:40:00,39.2,37.4,29.72,North,0,0.0,0.0,93,0.00,,,0.00,WUHU216HW,2013-03-17 10:40:00,
2013-03-17 03:45:00,39.2,37.4,29.72,North,0,0.0,0.0,93,0.00,,,0.00,WUHU216HW,2013-03-17 10:45:00,
2013-03-17 03:50:00,39.2,37.4,29.72,North,0,0.0,0.0,93,0.00,,,0.00,WUHU216HW,2013-03-17 10:50:00,
2013-03-17 03:55:00,39.2,37.4,29.73,North,0,0.0,0.0,93,0.00,,,0.00,WUHU216HW,2013-03-17 10:55:00,
2013-03-17 04:00:00,39.2,37.4,29.73,North,0,0.0,0.0,93,0.00,,,0.00,WUHU216HW,2013-03-17 11:00:00,
2013-03-17 04:05:00,39.2,37.4,29.73,North,0,0.0,0.0,93,0.00,,,0.00,WUHU216HW,2013-03-17 11:05:00,
2013-03-17 04:10:00,39.2,37.4,29.73,North,0,0.0,0.0,93,0.00,,,0.00,WUHU216HW,2013-03-17 11:10:00,
2013-03-17 04:15:00,39.2,37.4,29.73,North,0,0.0,0.0,93,0.00,,,0.00,WUHU216HW,2013-03-17 11:15:00,
2013-03-17 04:20:00,39.2,37.4,29.73,North,0,0.0,0.0,93,0.00,,,0.00,WUHU216HW,2013-03-17 11:20:00,
2013-03-17 04:25:00,39.4,37.5,29.73,North,0,0.0,0.0,93,0.00,,,0.00,WUHU216HW,2013-03-17 11:25:00,
2013-03-17 04:30:00,39.4,37.5,29.73,North,0,0.0,0.0,93,0.00,,,0.00,WUHU216HW,2013-03-17 11:30:00,
2013-03-17 04:35:00,39.4,37.5,29.74,North,0,0.0,0.0,93,0.00,,,0.00,WUHU216HW,2013-03-17 11:35:00,
2013-03-17 04:40:00,39.4,37.5,29.74,North,0,0.0,0.0,93,0.00,,,0.00,WUHU216HW,2013-03-17 11:40:00,
2013-03-17 04:45:00,39.6,37.7,29.74,North,0,0.0,0.0,93,0.00,,,0.00,WUHU216HW,2013-03-17 11:45:00,
2013-03-17 04:50:00,39.6,37.7,29.74,North,0,0.0,0.0,93,0.00,,,0.00,WUHU216HW,2013-03-17 11:50:00,
2013-03-17 04:55:00,39.6,37.4,29.74,North,0,0.0,0.0,92,0.00,,,0.00,WUHU216HW,2013-03-17 11:55:00,
2013-03-17 05:00:00,39.6,37.4,29.74,North,0,0.0,0.0,92,0.00,,,0.00,WUHU216HW,2013-03-17 12:00:00,
2013-03-17 05:05:00,39.6,37.4,29.74,North,0,0.0,0.0,92,0.00,,,0.00,WUHU216HW,2013-03-17 12:05:00,
2013-03-17 05:10:00,39.8,37.6,29.75,North,0,0.0,0.0,92,0.00,,,0.00,WUHU216HW,2013-03-17 12:10:00,
2013-03-17 05:15:00,39.8,37.6,29.75,North,0,0.0,0.0,92,0.00,,,0.00,WUHU216HW,2013-03-17 12:15:00,
2013-03-17 05:20:00,39.8,37.6,29.76,North,0,0.0,0.0,92,0.00,,,0.00,WUHU216HW,2013-03-17 12:20:00,
2013-03-17 05:25:00,39.8,37.4,29.76,North,0,0.0,0.0,91,0.00,,,0.00,WUHU216HW,2013-03-17 12:25:00,
2013-03-17 05:30:00,39.8,37.4,29.76,North,0,0.0,0.0,91,0.00,,,0.00,WUHU216HW,2013-03-17 12:30:00,
2013-03-17 05:35:00,40.0,37.5,29.76,North,0,0.0,0.0,91,0.00,,,0.00,WUHU216HW,2013-03-17 12:35:00,
2013-03-17 05:40:00,40.0,37.5,29.77,North,0,0.0,0.0,91,0.00,,,0.00,WUHU216HW,2013-03-17 12:40:00,
2013-03-17 05:45:00,40.0,37.5,29.77,North,0,0.0,0.0,91,0.00,,,0.00,WUHU216HW,2013-03-17 12:45:00,
2013-03-17 05:50:00,40.0,37.5,29.77,North,0,0.0,0.0,91,0.00,,,0.00,WUHU216HW,2013-03-17 12:50:00,
2013-03-17 05:55:00,40.0,37.5,29.77,North,0,0.0,0.0,91,0.00,,,0.00,WUHU216HW,2013-03-17 12:55:00,
2013-03-17 06:00:00,40.0,37.5,29.78,North,0,0.0,0.0,91,0.00,,,0.00,WUHU216HW,2013-03-17 13:00:00,
2013-03-17 06:05:00,40.0,37.5,29.78,North,0,0.0,0.0,91,0.00,,,0.00,WUHU216HW,2013-03-17 13:05:00,
2013-03-17 06:10:00,40.0,37.5,29.78,North,0,0.0,0.0,91,0.00,,,0.00,WUHU216HW,2013-03-17 13:10:00,
2013-03-17 06:15:00,39.8,37.4,29.78,North,0,0.0,0.0,91,0.00,,,0.00,WUHU216HW,2013-03-17 13:15:00,
2013-03-17 06:20:00,39.8,37.4,29.78,North,0,0.0,0.0,91,0.00,,,0.00,WUHU216HW,2013-03-17 13:20:00,
2013-03-17 06:25:00,39.8,37.4,29.78,North,0,0.0,0.0,91,0.00,,,0.00,WUHU216HW,2013-03-17 13:25:00,
2013-03-17 06:30:00,39.8,37.4,29.78,North,0,0.0,0.0,91,0.00,,,0.00,WUHU216HW,2013-03-17 13:30:00,
2013-03-17 06:35:00,39.8,37.4,29.79,North,0,0.0,0.0,91,0.00,,,0.00,WUHU216HW,2013-03-17 13:35:00,
2013-03-17 06:40:00,39.6,37.2,29.79,North,0,0.0,0.0,91,0.00,,,0.00,WUHU216HW,2013-03-17 13:40:00,
2013-03-17 06:45:00,39.6,37.2,29.79,North,0,0.0,0.0,91,0.00,,,0.00,WUHU216HW,2013-03-17 13:45:00,
2013-03-17 06:50:00,39.6,36.9,29.79,North,0,0.0,0.0,90,0.00,,,0.00,WUHU216HW,2013-03-17 13:50:00,
2013-03-17 06:55:00,39.6,37.2,29.80,North,0,0.0,0.0,91,0.00,,,0.00,WUHU216HW,2013-03-17 13:55:00,
2013-03-17 07:00:00,39.6,36.9,29.80,North,0,0.0,0.0,90,0.00,,,0.00,WUHU216HW,2013-03-17 14:00:00,
2013-03-17 07:05:00,39.6,36.9,29.80,North,0,0.0,0.0,90,0.00,,,0.00,WUHU216HW,2013-03-17 14:05:00,
2013-03-17 07:10:00,39.6,36.9,29.80,North,0,0.0,0.0,90,0.00,,,0.00,WUHU216HW,2013-03-17 14:10:00,
2013-03-17 07:15:00,39.6,36.6,29.80,North,0,0.0,0.0,89,0.00,,,0.00,WUHU216HW,2013-03-17 14:15:00,
2013-03-17 07:20:00,39.6,36.6,29.80,North,0,0.0,0.0,89,0.00,,,0.00,WUHU216HW,2013-03-17 14:20:00,
2013-03-17 07:25:00,39.6,36.6,29.80,North,0,0.0,0.0,89,0.00,,,0.00,WUHU216HW,2013-03-17 14:25:00,
2013-03-17 07:30:00,39.6,36.6,29.81,North,0,0.0,0.0,89,0.00,,,0.00,WUHU216HW,2013-03-17 14:30:00,
2013-03-17 07:35:00,39.6,36.6,29.81,North,0,0.0,0.0,89,0.00,,,0.00,WUHU216HW,2013-03-17 14:35:00,
2013-03-17 07:40:00,39.6,36.6,29.81,North,0,0.0,0.0,89,0.00,,,0.00,WUHU216HW,2013-03-17 14:40:00,
2013-03-17 07:45:00,39.6,36.6,29.81,North,0,0.0,0.0,89,0.00,,,0.00,WUHU216HW,2013-03-17 14:45:00,
2013-03-17 07:50:00,39.6,36.6,29.81,North,0,0.0,0.0,89,0.00,,,0.00,WUHU216HW,2013-03-17 14:50:00,
2013-03-17 07:55:00,39.4,36.2,29.81,North,0,0.0,0.0,88,0.00,,,0.00,WUHU216HW,2013-03-17 14:55:00,
2013-03-17 08:00:00,39.6,36.0,29.82,North,0,0.0,0.0,87,0.00,,,0.00,WUHU216HW,2013-03-17 15:00:00,
2013-03-17 08:05:00,39.6,36.0,29.82,North,0,0.0,0.0,87,0.00,,,0.00,WUHU216HW,2013-03-17 15:05:00,
2013-03-17 08:10:00,40.0,36.1,29.82,North,0,0.0,0.0,86,0.00,,,0.00,WUHU216HW,2013-03-17 15:10:00,
2013-03-17 08:15:00,40.0,36.4,29.82,North,0,0.0,0.0,87,0.00,,,0.00,WUHU216HW,2013-03-17 15:15:00,
2013-03-17 08:20:00,40.0,36.4,29.82,North,0,0.0,0.0,87,0.00,,,0.00,WUHU216HW,2013-03-17 15:20:00,
2013-03-17 08:25:00,40.1,36.5,29.83,North,0,0.0,0.0,87,0.00,,,0.00,WUHU216HW,2013-03-17 15:25:00,
2013-03-17 08:30:00,40.1,36.5,29.83,North,0,0.0,0.0,87,0.00,,,0.00,WUHU216HW,2013-03-17 15:30:00,
2013-03-17 08:35:00,40.3,36.1,29.83,North,0,0.0,0.0,85,0.00,,,0.00,WUHU216HW,2013-03-17 15:35:00,
2013-03-17 08:40:00,40.5,36.6,29.83,North,0,0.0,0.0,86,0.00,,,0.00,WUHU216HW,2013-03-17 15:40:00,
2013-03-17 08:45:00,40.7,36.8,29.83,North,0,0.0,0.0,86,0.00,,,0.00,WUHU216HW,2013-03-17 15:45:00,
2013-03-17 08:50:00,40.9,36.9,29.83,North,0,0.0,0.0,86,0.00,,,0.00,WUHU216HW,2013-03-17 15:50:00,
2013-03-17 08:55:00,41.2,37.3,29.84,North,0,0.0,0.0,86,0.00,,,0.00,WUHU216HW,2013-03-17 15:55:00,
2013-03-17 09:00:00,41.6,37.6,29.84,North,0,0.0,0.0,86,0.00,,,0.00,WUHU216HW,2013-03-17 16:00:00,
2013-03-17 09:05:00,41.9,38.0,29.84,North,0,0.0,0.0,86,0.00,,,0.00,WUHU216HW,2013-03-17 16:05:00,
2013-03-17 09:10:00,42.3,38.3,29.85,North,0,0.0,0.0,86,0.00,,,0.00,WUHU216HW,2013-03-17 16:10:00,
2013-03-17 09:15:00,42.5,38.5,29.85,North,0,0.0,0.0,86,0.00,,,0.00,WUHU216HW,2013-03-17 16:15:00,
2013-03-17 09:20:00,42.5,38.5,29.85,North,0,0.0,0.0,86,0.00,,,0.00,WUHU216HW,2013-03-17 16:20:00,
2013-03-17 09:25:00,42.8,38.9,29.85,North,0,0.0,0.0,86,0.00,,,0.00,WUHU216HW,2013-03-17 16:25:00,
2013-03-17 09:30:00,43.0,39.1,29.85,North,0,0.0,0.0,86,0.00,,,0.00,WUHU216HW,2013-03-17 16:30:00,
2013-03-17 09:35:00,43.4,39.8,29.85,North,0,0.0,0.0,87,0.00,,,0.00,WUHU216HW,2013-03-17 16:35:00,
2013-03-17 09:40:00,43.6,40.0,29.85,North,0,0.0,0.0,87,0.00,,,0.00,WUHU216HW,2013-03-17 16:40:00,
2013-03-17 09:45:00,43.9,40.0,29.85,North,0,0.0,0.0,86,0.00,,,0.00,WUHU216HW,2013-03-17 16:45:00,
2013-03-17 09:50:00,44.3,40.1,29.86,North,0,0.0,0.0,85,0.00,,,0.00,WUHU216HW,2013-03-17 16:50:00,
2013-03-17 09:55:00,44.5,40.2,29.86,North,0,0.0,0.0,85,0.00,,,0.00,WUHU216HW,2013-03-17 16:55:00,
2013-03-17 10:00:00,44.6,40.4,29.86,North,0,0.0,0.0,85,0.00,,,0.00,WUHU216HW,2013-03-17 17:00:00,
2013-03-17 10:05:00,44.6,40.4,29.86,North,0,0.0,0.0,85,0.00,,,0.00,WUHU216HW,2013-03-17 17:05:00,
2013-03-17 10:10:00,44.8,40.6,29.86,North,0,0.0,0.0,85,0.00,,,0.00,WUHU216HW,2013-03-17 17:10:00,
2013-03-17 10:15:00,44.8,40.6,29.86,North,0,0.0,0.0,85,0.00,,,0.00,WUHU216HW,2013-03-17 17:15:00,
2013-03-17 10:20:00,45.0,40.5,29.86,North,0,0.0,0.0,84,0.00,,,0.00,WUHU216HW,2013-03-17 17:20:00,
2013-03-17 10:25:00,45.0,40.5,29.86,North,0,0.0,0.0,84,0.00,,,0.00,WUHU216HW,2013-03-17 17:25:00,
2013-03-17 10:30:00,45.2,40.7,29.87,North,0,0.0,0.0,84,0.00,,,0.00,WUHU216HW,2013-03-17 17:30:00,
2013-03-17 10:35:00,45.4,40.9,29.87,North,0,0.0,0.0,84,0.00,,,0.00,WUHU216HW,2013-03-17 17:35:00,
2013-03-17 10:40:00,45.5,40.7,29.87,North,0,0.0,0.0,83,0.00,,,0.00,WUHU216HW,2013-03-17 17:40:00,
2013-03-17 10:45:00,45.5,40.7,29.87,North,0,0.0,0.0,83,0.00,,,0.00,WUHU216HW,2013-03-17 17:45:00,
2013-03-17 10:50:00,45.7,40.9,29.87,North,0,0.0,0.0,83,0.00,,,0.00,WUHU216HW,2013-03-17 17:50:00,
2013-03-17 10:55:00,45.9,40.4,29.87,North,0,0.0,0.0,81,0.00,,,0.00,WUHU216HW,2013-03-17 17:55:00,
2013-03-17 11:00:00,46.4,41.0,29.88,North,0,0.0,0.0,81,0.00,,,0.00,WUHU216HW,2013-03-17 18:00:00,
2013-03-17 11:05:00,46.8,41.3,29.88,North,0,0.0,0.0,81,0.00,,,0.00,WUHU216HW,2013-03-17 18:05:00,
2013-03-17 11:10:00,47.2,41.7,29.88,North,0,0.0,0.0,81,0.00,,,0.00,WUHU216HW,2013-03-17 18:10:00,
2013-03-17 11:15:00,47.2,41.3,29.88,North,0,0.0,0.0,80,0.00,,,0.00,WUHU216HW,2013-03-17 18:15:00,
2013-03-17 11:20:00,47.5,41.7,29.88,North,0,0.0,0.0,80,0.00,,,0.00,WUHU216HW,2013-03-17 18:20:00,
2013-03-17 11:25:00,47.7,41.1,29.88,North,0,0.0,0.0,78,0.00,,,0.00,WUHU216HW,2013-03-17 18:25:00,
2013-03-17 11:30:00,47.7,41.5,29.88,North,0,0.0,0.0,79,0.00,,,0.00,WUHU216HW,2013-03-17 18:30:00,
2013-03-17 11:35:00,47.9,41.3,29.88,North,0,0.0,0.0,78,0.00,,,0.00,WUHU216HW,2013-03-17 18:35:00,
2013-03-17 11:40:00,48.1,41.5,29.88,North,0,0.0,0.0,78,0.00,,,0.00,WUHU216HW,2013-03-17 18:40:00,
2013-03-17 11:45:00,48.4,41.8,29.88,North,0,0.0,0.0,78,0.00,,,0.00,WUHU216HW,2013-03-17 18:45:00,
2013-03-17 11:50:00,48.8,42.1,29.88,North,0,0.0,0.0,78,0.00,,,0.00,WUHU216HW,2013-03-17 18:50:00,
2013-03-17 11:55:00,49.0,42.0,29.88,North,0,0.0,0.0,77,0.00,,,0.00,WUHU216HW,2013-03-17 18:55:00,
2013-03-17 12:00:00,49.1,42.2,29.88,North,0,0.0,0.0,77,0.00,,,0.00,WUHU216HW,2013-03-17 19:00:00,
2013-03-17 12:05:00,49.3,39.6,29.88,North,0,0.0,0.0,69,0.00,,,0.00,WUHU216HW,2013-03-17 19:05:00,
2013-03-17 12:10:00,49.0,38.1,29.87,North,0,0.0,0.0,66,0.00,,,0.00,WUHU216HW,2013-03-17 19:10:00,
2013-03-17 12:15:00,48.8,36.0,29.87,North,0,0.0,0.0,61,0.00,,,0.00,WUHU216HW,2013-03-17 19:15:00,
2013-03-17 12:20:00,48.8,38.3,29.87,North,0,0.0,0.0,67,0.00,,,0.00,WUHU216HW,2013-03-17 19:20:00,
2013-03-17 12:25:00,48.4,36.4,29.87,North,0,0.0,0.0,63,0.00,,,0.00,WUHU216HW,2013-03-17 19:25:00,
2013-03-17 12:30:00,48.6,38.5,29.87,North,0,0.0,0.0,68,0.00,,,0.00,WUHU216HW,2013-03-17 19:30:00,
2013-03-17 12:35:00,49.0,39.3,29.87,North,0,0.0,0.0,69,0.00,,,0.00,WUHU216HW,2013-03-17 19:35:00,
2013-03-17 12:40:00,49.7,40.3,29.87,North,0,0.0,0.0,70,0.00,,,0.00,WUHU216HW,2013-03-17 19:40:00,
2013-03-17 12:45:00,49.9,39.7,29.87,North,0,0.0,0.0,68,0.00,,,0.00,WUHU216HW,2013-03-17 19:45:00,
2013-03-17 12:50:00,49.9,40.2,29.87,North,0,0.0,0.0,69,0.00,,,0.00,WUHU216HW,2013-03-17 19:50:00,
2013-03-17 12:55:00,49.7,39.5,29.88,North,0,0.0,0.0,68,0.00,,,0.00,WUHU216HW,2013-03-17 19:55:00,
2013-03-17 13:00:00,49.3,37.3,29.88,North,0,0.0,0.0,63,0.00,,,0.00,WUHU216HW,2013-03-17 20:00:00,
2013-03-17 13:05:00,48.8,36.0,29.88,North,0,0.0,0.0,61,0.00,,,0.00,WUHU216HW,2013-03-17 20:05:00,
2013-03-17 13:10:00,48.2,36.3,29.88,North,0,0.0,0.0,63,0.00,,,0.00,WUHU216HW,2013-03-17 20:10:00,
2013-03-17 13:15:00,47.9,35.9,29.87,North,0,0.0,0.0,63,0.00,,,0.00,WUHU216HW,2013-03-17 20:15:00,
2013-03-17 13:20:00,47.5,35.6,29.87,North,0,0.0,0.0,63,0.00,,,0.00,WUHU216HW,2013-03-17 20:20:00,
2013-03-17 13:25:00,47.5,35.6,29.88,North,0,0.0,0.0,63,0.00,,,0.00,WUHU216HW,2013-03-17 20:25:00,
2013-03-17 13:30:00,47.2,35.6,29.87,North,0,0.0,0.0,64,0.00,,,0.00,WUHU216HW,2013-03-17 20:30:00,
2013-03-17 13:35:00,47.2,36.0,29.87,North,0,0.0,0.0,65,0.00,,,0.00,WUHU216HW,2013-03-17 20:35:00,
2013-03-17 13:40:00,47.0,35.8,29.87,North,0,0.0,0.0,65,0.00,,,0.00,WUHU216HW,2013-03-17 20:40:00,
2013-03-17 13:45:00,46.8,35.7,29.87,North,0,0.0,0.0,65,0.00,,,0.00,WUHU216HW,2013-03-17 20:45:00,
2013-03-17 13:50:00,46.8,36.0,29.87,North,0,0.0,0.0,66,0.00,,,0.00,WUHU216HW,2013-03-17 20:50:00,
2013-03-17 13:55:00,46.6,35.1,29.87,North,0,0.0,0.0,64,0.00,,,0.00,WUHU216HW,2013-03-17 20:55:00,
2013-03-17 14:00:00,46.6,34.7,29.87,North,0,0.0,0.0,63,0.00,,,0.00,WUHU216HW,2013-03-17 21:00:00,
2013-03-17 14:05:00,46.4,34.5,29.87,North,0,0.0,0.0,63,0.00,,,0.00,WUHU216HW,2013-03-17 21:05:00,
2013-03-17 14:10:00,46.3,34.8,29.87,North,0,0.0,0.0,64,0.00,,,0.00,WUHU216HW,2013-03-17 21:10:00,
2013-03-17 14:15:00,46.3,34.8,29.86,North,0,0.0,0.0,64,0.00,,,0.00,WUHU216HW,2013-03-17 21:15:00,
2013-03-17 14:20:00,46.4,35.6,29.86,North,0,0.0,0.0,66,0.00,,,0.00,WUHU216HW,2013-03-17 21:20:00,
2013-03-17 14:25:00,46.6,34.7,29.86,North,0,0.0,0.0,63,0.00,,,0.00,WUHU216HW,2013-03-17 21:25:00,
2013-03-17 14:30:00,46.8,35.2,29.86,North,0,0.0,0.0,64,0.00,,,0.00,WUHU216HW,2013-03-17 21:30:00,
2013-03-17 14:35:00,47.2,35.2,29.86,North,0,0.0,0.0,63,0.00,,,0.00,WUHU216HW,2013-03-17 21:35:00,
2013-03-17 14:40:00,47.3,35.0,29.86,North,0,0.0,0.0,62,0.00,,,0.00,WUHU216HW,2013-03-17 21:40:00,
2013-03-17 14:45:00,47.3,35.4,29.86,North,0,0.0,0.0,63,0.00,,,0.00,WUHU216HW,2013-03-17 21:45:00,
2013-03-17 14:50:00,47.7,35.7,29.86,North,0,0.0,0.0,63,0.00,,,0.00,WUHU216HW,2013-03-17 21:50:00,
2013-03-17 14:55:00,47.9,36.3,29.86,North,0,0.0,0.0,64,0.00,,,0.00,WUHU216HW,2013-03-17 21:55:00,
2013-03-17 15:00:00,47.9,35.1,29.86,North,0,0.0,0.0,61,0.00,,,0.00,WUHU216HW,2013-03-17 22:00:00,
2013-03-17 15:05:00,47.5,34.7,29.86,North,0,0.0,0.0,61,0.00,,,0.00,WUHU216HW,2013-03-17 22:05:00,
2013-03-17 15:10:00,47.7,35.4,29.87,North,0,0.0,0.0,62,0.00,,,0.00,WUHU216HW,2013-03-17 22:10:00,
2013-03-17 15:15:00,47.7,35.4,29.86,North,0,0.0,0.0,62,0.00,,,0.00,WUHU216HW,2013-03-17 22:15:00,
2013-03-17 15:20:00,47.9,35.9,29.86,North,0,0.0,0.0,63,0.00,,,0.00,WUHU216HW,2013-03-17 22:20:00,
2013-03-17 15:25:00,48.4,36.4,29.86,North,0,0.0,0.0,63,0.00,,,0.00,WUHU216HW,2013-03-17 22:25:00,
2013-03-17 15:30:00,48.4,36.0,29.86,North,0,0.0,0.0,62,0.00,,,0.00,WUHU216HW,2013-03-17 22:30:00,
2013-03-17 15:35:00,48.2,35.5,29.86,North,0,0.0,0.0,61,0.00,,,0.00,WUHU216HW,2013-03-17 22:35:00,
2013-03-17 15:40:00,47.9,35.1,29.86,North,0,0.0,0.0,61,0.00,,,0.00,WUHU216HW,2013-03-17 22:40:00,
2013-03-17 15:45:00,47.9,35.1,29.86,North,0,0.0,0.0,61,0.00,,,0.00,WUHU216HW,2013-03-17 22:45:00,
2013-03-17 15:50:00,47.9,35.9,29.86,North,0,0.0,0.0,63,0.00,,,0.00,WUHU216HW,2013-03-17 22:50:00,
2013-03-17 15:55:00,48.2,35.5,29.86,North,0,0.0,0.0,61,0.00,,,0.00,WUHU216HW,2013-03-17 22:55:00,
2013-03-17 16:00:00,48.1,34.9,29.86,North,0,0.0,0.0,60,0.00,,,0.00,WUHU216HW,2013-03-17 23:00:00,
2013-03-17 16:05:00,48.1,35.3,29.86,North,0,0.0,0.0,61,0.00,,,0.00,WUHU216HW,2013-03-17 23:05:00,
2013-03-17 16:10:00,48.2,36.3,29.86,North,0,0.0,0.0,63,0.00,,,0.00,WUHU216HW,2013-03-17 23:10:00,
2013-03-17 16:15:00,48.4,36.0,29.87,North,0,0.0,0.0,62,0.00,,,0.00,WUHU216HW,2013-03-17 23:15:00,
2013-03-17 16:20:00,48.1,34.5,29.87,North,0,0.0,0.0,59,0.00,,,0.00,WUHU216HW,2013-03-17 23:20:00,
2013-03-17 16:25:00,47.9,34.7,29.87,North,0,0.0,0.0,60,0.00,,,0.00,WUHU216HW,2013-03-17 23:25:00,
2013-03-17 16:30:00,47.5,34.7,29.87,North,0,0.0,0.0,61,0.00,,,0.00,WUHU216HW,2013-03-17 23:30:00,
2013-03-17 16:35:00,47.3,34.6,29.86,North,0,0.0,0.0,61,0.00,,,0.00,WUHU216HW,2013-03-17 23:35:00,
2013-03-17 16:40:00,47.2,34.4,29.87,North,0,0.0,0.0,61,0.00,,,0.00,WUHU216HW,2013-03-17 23:40:00,
2013-03-17 16:45:00,47.3,35.0,29.87,North,0,0.0,0.0,62,0.00,,,0.00,WUHU216HW,2013-03-17 23:45:00,
2013-03-17 16:50:00,47.3,34.6,29.87,North,0,0.0,0.0,61,0.00,,,0.00,WUHU216HW,2013-03-17 23:50:00,
2013-03-17 16:55:00,47.3,35.0,29.87,North,0,0.0,0.0,62,0.00,,,0.00,WUHU216HW,2013-03-17 23:55:00,
2013-03-17 17:00:00,47.2,34.4,29.87,North,0,0.0,0.0,61,0.00,,,0.00,WUHU216HW,2013-03-18 00:00:00,
2013-03-17 17:05:00,47.2,35.2,29.87,North,0,0.0,0.0,63,0.00,,,0.00,WUHU216HW,2013-03-18 00:05:00,
2013-03-17 17:10:00,47.2,35.6,29.87,North,0,0.0,0.0,64,0.00,,,0.00,WUHU216HW,2013-03-18 00:10:00,
2013-03-17 17:15:00,47.0,35.4,29.87,North,0,0.0,0.0,64,0.00,,,0.00,WUHU216HW,2013-03-18 00:15:00,
2013-03-17 17:20:00,46.6,35.8,29.87,North,0,0.0,0.0,66,0.00,,,0.00,WUHU216HW,2013-03-18 00:20:00,
2013-03-17 17:25:00,46.4,35.6,29.87,North,0,0.0,0.0,66,0.00,,,0.00,WUHU216HW,2013-03-18 00:25:00,
2013-03-17 17:30:00,45.9,35.6,29.87,North,0,0.0,0.0,67,0.00,,,0.00,WUHU216HW,2013-03-18 00:30:00,
2013-03-17 17:35:00,45.7,35.0,29.88,North,0,0.0,0.0,66,0.00,,,0.00,WUHU216HW,2013-03-18 00:35:00,
2013-03-17 17:40:00,45.4,34.7,29.88,North,0,0.0,0.0,66,0.00,,,0.00,WUHU216HW,2013-03-18 00:40:00,
2013-03-17 17:45:00,45.4,34.7,29.87,North,0,0.0,0.0,66,0.00,,,0.00,WUHU216HW,2013-03-18 00:45:00,
2013-03-17 17:50:00,45.2,34.8,29.87,North,0,0.0,0.0,67,0.00,,,0.00,WUHU216HW,2013-03-18 00:50:00,
2013-03-17 17:55:00,45.0,35.1,29.87,North,0,0.0,0.0,68,0.00,,,0.00,WUHU216HW,2013-03-18 00:55:00,
2013-03-17 18:00:00,45.0,34.7,29.87,North,0,0.0,0.0,67,0.00,,,0.00,WUHU216HW,2013-03-18 01:00:00,
2013-03-17 18:05:00,45.0,34.7,29.88,North,0,0.0,0.0,67,0.00,,,0.00,WUHU216HW,2013-03-18 01:05:00,
2013-03-17 18:10:00,44.6,34.8,29.87,North,0,0.0,0.0,68,0.00,,,0.00,WUHU216HW,2013-03-18 01:10:00,
2013-03-17 18:15:00,44.3,34.4,29.87,North,0,0.0,0.0,68,0.00,,,0.00,WUHU216HW,2013-03-18 01:15:00,
2013-03-17 18:20:00,44.1,35.0,29.87,North,0,0.0,0.0,70,0.00,,,0.00,WUHU216HW,2013-03-18 01:20:00,
2013-03-17 18:25:00,43.9,35.5,29.87,North,0,0.0,0.0,72,0.00,,,0.00,WUHU216HW,2013-03-18 01:25:00,
2013-03-17 18:30:00,43.7,35.0,29.87,North,0,0.0,0.0,71,0.00,,,0.00,WUHU216HW,2013-03-18 01:30:00,
2013-03-17 18:35:00,43.6,35.2,29.86,North,0,0.0,0.0,72,0.00,,,0.00,WUHU216HW,2013-03-18 01:35:00,
2013-03-17 18:40:00,43.4,35.0,29.86,North,0,0.0,0.0,72,0.00,,,0.00,WUHU216HW,2013-03-18 01:40:00,
2013-03-17 18:45:00,43.4,35.3,29.86,North,0,0.0,0.0,73,0.00,,,0.00,WUHU216HW,2013-03-18 01:45:00,
2013-03-17 18:50:00,43.2,35.5,29.86,North,0,0.0,0.0,74,0.00,,,0.00,WUHU216HW,2013-03-18 01:50:00,
2013-03-17 18:55:00,43.0,35.3,29.86,North,0,0.0,0.0,74,0.00,,,0.00,WUHU216HW,2013-03-18 01:55:00,
2013-03-17 19:00:00,42.8,35.1,29.86,North,0,0.0,0.0,74,0.00,,,0.00,WUHU216HW,2013-03-18 02:00:00,
2013-03-17 19:05:00,42.7,35.3,29.86,North,0,0.0,0.0,75,0.00,,,0.00,WUHU216HW,2013-03-18 02:05:00,
2013-03-17 19:10:00,42.5,34.7,29.86,North,0,0.0,0.0,74,0.00,,,0.00,WUHU216HW,2013-03-18 02:10:00,
2013-03-17 19:15:00,42.5,35.1,29.86,North,0,0.0,0.0,75,0.00,,,0.00,WUHU216HW,2013-03-18 02:15:00,
2013-03-17 19:20:00,42.5,35.5,29.86,North,0,0.0,0.0,76,0.00,,,0.00,WUHU216HW,2013-03-18 02:20:00,
2013-03-17 19:25:00,42.5,35.7,29.86,North,0,0.0,0.0,77,0.02,,,0.02,WUHU216HW,2013-03-18 02:25:00,
2013-03-17 19:30:00,42.3,35.6,29.86,North,0,0.0,0.0,77,0.02,,,0.02,WUHU216HW,2013-03-18 02:30:00,
2013-03-17 19:35:00,42.1,35.4,29.86,North,0,0.0,0.0,77,0.02,,,0.02,WUHU216HW,2013-03-18 02:35:00,
2013-03-17 19:40:00,42.1,35.7,29.86,North,0,0.0,0.0,78,0.02,,,0.02,WUHU216HW,2013-03-18 02:40:00,
2013-03-17 19:45:00,41.9,35.8,29.86,North,0,0.0,0.0,79,0.02,,,0.02,WUHU216HW,2013-03-18 02:45:00,
2013-03-17 19:50:00,41.8,35.6,29.86,North,0,0.0,0.0,79,0.02,,,0.02,WUHU216HW,2013-03-18 02:50:00,
2013-03-17 19:55:00,41.8,36.0,29.86,North,0,0.0,0.0,80,0.02,,,0.02,WUHU216HW,2013-03-18 02:55:00,
2013-03-17 20:00:00,41.8,36.0,29.86,North,0,0.0,0.0,80,0.02,,,0.02,WUHU216HW,2013-03-18 03:00:00,
2013-03-17 20:05:00,41.6,36.1,29.86,North,0,0.0,0.0,81,0.02,,,0.02,WUHU216HW,2013-03-18 03:05:00,
2013-03-17 20:10:00,41.4,35.9,29.86,North,0,0.0,0.0,81,0.02,,,0.02,WUHU216HW,2013-03-18 03:10:00,
2013-03-17 20:15:00,41.4,35.9,29.86,North,0,0.0,0.0,81,0.02,,,0.02,WUHU216HW,2013-03-18 03:15:00,
2013-03-17 20:20:00,41.4,35.9,29.86,North,0,0.0,0.0,81,0.02,,,0.02,WUHU216HW,2013-03-18 03:20:00,
2013-03-17 20:25:00,41.2,35.7,29.86,North,0,0.0,0.0,81,0.00,,,0.02,WUHU216HW,2013-03-18 03:25:00,
2013-03-17 20:30:00,41.2,35.7,29.86,North,0,0.0,0.0,81,0.00,,,0.02,WUHU216HW,2013-03-18 03:30:00,
2013-03-17 20:35:00,41.2,36.1,29.86,North,0,0.0,0.0,82,0.00,,,0.02,WUHU216HW,2013-03-18 03:35:00,
2013-03-17 20:40:00,41.0,35.9,29.86,North,0,0.0,0.0,82,0.00,,,0.02,WUHU216HW,2013-03-18 03:40:00,
2013-03-17 20:45:00,41.0,35.9,29.86,North,0,0.0,0.0,82,0.00,,,0.02,WUHU216HW,2013-03-18 03:45:00,
2013-03-17 20:50:00,41.0,36.2,29.86,North,0,0.0,0.0,83,0.00,,,0.02,WUHU216HW,2013-03-18 03:50:00,
2013-03-17 20:55:00,41.0,35.9,29.86,North,0,0.0,0.0,82,0.00,,,0.02,WUHU216HW,2013-03-18 03:55:00,
2013-03-17 21:00:00,40.9,35.7,29.86,North,0,0.0,0.0,82,0.00,,,0.02,WUHU216HW,2013-03-18 04:00:00,
2013-03-17 21:05:00,40.9,35.7,29.86,North,0,0.0,0.0,82,0.00,,,0.02,WUHU216HW,2013-03-18 04:05:00,
2013-03-17 21:10:00,40.9,36.0,29.86,North,0,0.0,0.0,83,0.00,,,0.02,WUHU216HW,2013-03-18 04:10:00,
2013-03-17 21:15:00,40.9,36.0,29.86,North,0,0.0,0.0,83,0.00,,,0.02,WUHU216HW,2013-03-18 04:15:00,
2013-03-17 21:20:00,40.9,36.0,29.86,North,0,0.0,0.0,83,0.00,,,0.02,WUHU216HW,2013-03-18 04:20:00,
2013-03-17 21:25:00,40.7,36.2,29.86,North,0,0.0,0.0,84,0.00,,,0.02,WUHU216HW,2013-03-18 04:25:00,
2013-03-17 21:30:00,40.7,35.8,29.86,North,0,0.0,0.0,83,0.00,,,0.02,WUHU216HW,2013-03-18 04:30:00,
2013-03-17 21:35:00,40.7,36.2,29.86,North,0,0.0,0.0,84,0.00,,,0.02,WUHU216HW,2013-03-18 04:35:00,
2013-03-17 21:40:00,40.7,36.2,29.86,North,0,0.0,0.0,84,0.00,,,0.02,WUHU216HW,2013-03-18 04:40:00,
2013-03-17 21:45:00,40.7,36.2,29.86,North,0,0.0,0.0,84,0.00,,,0.02,WUHU216HW,2013-03-18 04:45:00,
2013-03-17 21:50:00,40.7,36.2,29.86,North,0,0.0,0.0,84,0.00,,,0.02,WUHU216HW,2013-03-18 04:50:00,
2013-03-17 21:55:00,40.7,36.2,29.87,North,0,0.0,0.0,84,0.00,,,0.02,WUHU216HW,2013-03-18 04:55:00,
2013-03-17 22:00:00,40.7,36.2,29.87,North,0,0.0,0.0,84,0.00,,,0.02,WUHU216HW,2013-03-18 05:00:00,
2013-03-17 22:05:00,40.7,36.2,29.87,North,0,0.0,0.0,84,0.00,,,0.02,WUHU216HW,2013-03-18 05:05:00,
2013-03-17 22:10:00,40.7,36.2,29.87,North,0,0.0,0.0,84,0.00,,,0.02,WUHU216HW,2013-03-18 05:10:00,
2013-03-17 22:15:00,40.3,35.8,29.87,North,0,0.0,0.0,84,0.00,,,0.02,WUHU216HW,2013-03-18 05:15:00,
2013-03-17 22:20:00,40.3,35.8,29.87,North,0,0.0,0.0,84,0.00,,,0.02,WUHU216HW,2013-03-18 05:20:00,
2013-03-17 22:25:00,40.1,35.6,29.88,North,0,0.0,0.0,84,0.00,,,0.02,WUHU216HW,2013-03-18 05:25:00,
2013-03-17 22:30:00,40.0,35.8,29.87,North,0,0.0,0.0,85,0.00,,,0.02,WUHU216HW,2013-03-18 05:30:00,
2013-03-17 22:35:00,39.8,35.3,29.87,North,0,0.0,0.0,84,0.00,,,0.02,WUHU216HW,2013-03-18 05:35:00,
2013-03-17 22:40:00,39.6,35.5,29.87,North,0,0.0,0.0,85,0.00,,,0.02,WUHU216HW,2013-03-18 05:40:00,
2013-03-17 22:45:00,39.6,35.5,29.87,North,0,0.0,0.0,85,0.00,,,0.02,WUHU216HW,2013-03-18 05:45:00,
2013-03-17 22:50:00,39.4,35.3,29.87,North,0,0.0,0.0,85,0.00,,,0.02,WUHU216HW,2013-03-18 05:50:00,
2013-03-17 22:55:00,39.2,35.1,29.87,North,0,0.0,0.0,85,0.00,,,0.02,WUHU216HW,2013-03-18 05:55:00,
2013-03-17 23:00:00,39.2,35.1,29.87,North,0,0.0,0.0,85,0.00,,,0.02,WUHU216HW,2013-03-18 06:00:00,
2013-03-17 23:05:00,39.1,34.9,29.88,North,0,0.0,0.0,85,0.00,,,0.02,WUHU216HW,2013-03-18 06:05:00,
2013-03-17 23:10:00,39.1,34.9,29.88,North,0,0.0,0.0,85,0.00,,,0.02,WUHU216HW,2013-03-18 06:10:00,
2013-03-17 23:15:00,38.9,34.7,29.88,North,0,0.0,0.0,85,0.00,,,0.02,WUHU216HW,2013-03-18 06:15:00,
2013-03-17 23:20:00,38.9,34.7,29.88,North,0,0.0,0.0,85,0.00,,,0.02,WUHU216HW,2013-03-18 06:20:00,
2013-03-17 23:25:00,38.9,35.0,29.88,North,0,0.0,0.0,86,0.02,,,0.04,WUHU216HW,2013-03-18 06:25:00,
2013-03-17 23:30:00,38.7,34.8,29.88,North,0,0.0,0.0,86,0.02,,,0.04,WUHU216HW,2013-03-18 06:30:00,
2013-03-17 23:35:00,38.7,34.8,29.87,North,0,0.0,0.0,86,0.02,,,0.04,WUHU216HW,2013-03-18 06:35:00,
2013-03-17 23:40:00,38.5,34.7,29.88,North,0,0.0,0.0,86,0.02,,,0.04,WUHU216HW,2013-03-18 06:40:00,
2013-03-17 23:45:00,38.5,34.7,29.87,North,0,0.0,0.0,86,0.02,,,0.04,WUHU216HW,2013-03-18 06:45:00,
2013-03-17 23:50:00,38.5,34.9,29.87,North,0,0.0,0.0,87,0.02,,,0.04,WUHU216HW,2013-03-18 06:50:00,
2013-03-17 23:55:00,38.5,34.9,29.87,North,0,0.0,0.0,87,0.02,,,0.04,WUHU216HW,2013-03-18 06:55:00,